Regional Weather Roundup
Issued by NWS Kansas City/Pleasant Hill, MO

Home | Current Version | Previous Version | Text Only | Print | Product List | Glossary On
Versions: 1 2 3 4 5 6 7 8 9 10 11 12 13 14 15 16 17 18 19 20 21 22 23 24 25 26 27 28 29 30 31 32 33 34 35 36 37 38 39 40 41 42 43 44 45 46 47 48 49 50
000
ASUS43 KEAX 120210
RWREAX

WEATHER ROUNDUP FOR EASTERN KANSAS AND NORTHWEST MISSOURI
NATIONAL WEATHER SERVICE KANSAS CITY/PLEASANT HILL MO
900 PM CDT FRI JUL 11 2014

KSZ040-057-103>105-MOZ028-029-037-043-120300-
...KANSAS CITY METROPOLITAN AREA...

CITY           SKY/WX    TMP DP  RH WIND       PRES   REMARKS
K.C. INTL      PTCLDY    82  73  74 S9        30.01R
K.C. DOWNTOWN  CLEAR     87  73  62 S12       30.00R HX  94
LEES SUMMIT    CLEAR     85  72  65 S9        30.03R HX  91
OLATHE - IXD   CLEAR     83  72  69 S8        30.03R
OLATHE - OJC   CLEAR     82  73  74 S8        30.02R
LAWRENCE       CLEAR     86  71  60 S9        30.00R HX  91

$$

MOZ001>008-011>017-020>025-030>033-038>040-044>046-053-054-120300-
...NORTHERN AND CENTRAL MISSOURI...

CITY           SKY/WX    TMP DP  RH WIND       PRES   REMARKS
ST. JOSEPH     CLEAR     82  75  79 S8        29.98S
MOSBY          CLEAR     84  73  70 S3        30.01R HX  91
WHITEMAN AFB   CLEAR     79  70  73 S6        30.03S
CLINTON        PTCLDY    82  75  78 S7        30.05R
SEDALIA        CLEAR     83  73  72 S7        30.05R
WARSAW         NOT AVBL
MARSHALL         N/A     82  77  83 S6        30.04R FOG     HX  91
CHILLICOTHE      N/A     84  74  71 S5        30.01S HX  91
MOBERLY        PTCLDY    81  73  78 S3        30.04F
KIRKSVILLE     CLOUDY    80  73  79 S7        30.03S

$$

MOZ041-047>049-056>058-063>065-088>090-097-120300-
...EASTERN AND SOUTHERN MISSOURI...

CITY           SKY/WX    TMP DP  RH WIND       PRES   REMARKS
ST. LOUIS INTL MOCLDY    86  70  58 S8        30.09R HX  90
SPIRIT OF STL  PTCLDY    82  70  66 SE5       30.07R
COLUMBIA       CLEAR     81  74  79 S6        30.06S
JEFFERSON CITY CLEAR     83  74  74 E5        30.05R
MEXICO         PTCLDY    81  77  89 S6        30.06R
HANNIBAL       CLOUDY    81  70  69 S7        30.03F
ROLLA          PTCLDY    79  72  79 S6        30.09R
LEBANON        PTCLDY    81  72  74 S7        30.11S
OSAGE BEACH    PTCLDY    84  72  65 S3        30.07R
SPRINGFIELD    PTCLDY    80  72  76 S7        30.10S
BRANSON        PTCLDY    82  72  69 S6        30.14R
NEVADA         CLEAR     79  72  78 S6        30.07R
JOPLIN         CLEAR     81  71  71 S6        30.08S
WEST PLAINS    PTCLDY    79  72  79 S5        30.15R
PIEDMONT       PTCLDY    77  72  83 CALM      30.12S
MALDEN         CLEAR     82  70  65 CALM      30.12S

$$

IAZ060-094-KSZ022-034>040-054-083-096-NEZ052-066-093-120300-
...KANSAS...SOUTHEAST NEBRASKA AND IOWA...

CITY           SKY/WX    TMP DP  RH WIND       PRES   REMARKS
TOPEKA         CLEAR     88  70  55 S10       29.99R HX  93
MANHATTAN      CLEAR     88  67  49 S12       29.97R HX  91
EMPORIA        CLEAR     81  68  64 S10       30.02S
CHANUTE        CLEAR     81  70  69 S8        30.05S
WICHITA        PTCLDY    83  65  54 S12       30.01R
OMAHA          MOCLDY    80  73  79 E6        29.98R
LINCOLN        CLEAR     84  75  74 E10       29.96S HX  92
FALLS CITY     CLEAR     82  76  81 S7        29.96R
LAMONI         MOCLDY    77  74  90 NE3       30.01S
DES MOINES     CLOUDY    77  71  82 E5        30.00F

$$




USA.gov is the U.S. government's official web portal to all federal, state and local government web resources and services.